Regional Weather Roundup
Issued by NWS State College, PA

Home | Current Version | Previous Version | Text Only | Print | Product List | Glossary On
Versions: 1 2 3 4 5 6 7 8 9 10 11 12 13 14 15 16 17 18 19 20 21 22 23 24 25 26 27 28 29 30 31 32 33 34 35 36 37 38 39 40 41 42 43 44 45 46 47 48 49 50
000
ASUS41 KCTP 030103
RWRCTP

REGIONAL WEATHER ROUNDUP
NATIONAL WEATHER SERVICE STATE COLLEGE PA
900 PM EDT TUE SEP 02 2014

Note: "fair" indicates few or no clouds below 12,000 feet with no
significant weather and/or obstructions to visibility.

* = STATION THAT DOES NOT REPORT PRECIPITATION /E.G. RAIN...SNOW...ETC/
    THUNDER OR FOG.

PAZ002>004-007>009-013>016-020>023-029>032-030200-
WESTERN PENNSYLVANIA

CITY           SKY/WX    TMP DP  RH WIND       PRES   REMARKS
ERIE           MOCLDY    69  65  86 SW5       29.92R
MEADVILLE      PTCLDY    66  63  90 W3        29.95R
FRANKLIN*      PTCLDY    66  61  82 W6        29.97R
NEW CASTLE     FAIR      69  66  90 CALM      29.95R
BEAVER COUNTY  PTCLDY    70  64  83 W3        29.95R
BUTLER*        PTCLDY    70  63  78 W3        29.97R
PITTSBURGH INT MOCLDY    72  65  78 W6        29.95R
PITTSBURGH     PTCLDY    74  64  71 W7        29.94R
INDIANA*       CLEAR     70  68  94 CALM      30.00R
LATROBE        CLOUDY    73  72  94 W5        29.96R
WASHINGTON CO* PTCLDY    70  64  83 W3        29.96S
$$

PAZ004>006-010>012-017>019-024>028-033>037-041-042-045-046-049>053-030200-
CENTRAL PENNSYLVANIA

CITY           SKY/WX    TMP DP  RH WIND       PRES   REMARKS
BRADFORD       CLOUDY    65  62  90 NW7       29.96R
DUBOIS         CLEAR     65  64  97 W6        29.95R
CLEARFIELD     CLEAR     69  65  86 NW8       29.94R
JOHNSTOWN      CLOUDY    68  65  90 NW10      29.99R
ALTOONA        LGT RAIN  71  68  90 N5        29.96R
STATE COLLEGE  PTCLDY    70  66  88 W5        29.93R
WILLIAMSPORT   MOCLDY    73  68  84 W6        29.87R
SELINSGROVE    MOCLDY    73  70  90 CALM      29.89R
FT INDIANTOWN  CLOUDY    74  73  98 VRB5      29.89R
CAPITAL CITY   MOCLDY    72  67  84 W7        29.89R
HARRISBURG     MOCLDY    74  69  85 SW8       29.88R
YORK           MOCLDY    74  67  78 SW5       29.90R
$$

PAZ038>040-043-044-047-048-054-055-060>062-067>071-030200-
EASTERN PENNSYLVANIA

CITY           SKY/WX    TMP DP  RH WIND       PRES   REMARKS
SCRANTON       LGT RAIN  76  70  82 SW12      29.85R
MOUNT POCONO   CLOUDY    73  68  84 SW9G18    29.89S
ALLENTOWN      CLOUDY    79  71  76 SW8       29.84R
QUAKERTOWN*    CLOUDY    75  68  78 MISG      29.87S
READING        CLOUDY    75  67  76 W5        29.87R
LANCASTER      CLOUDY    73  67  81 SW7       29.90R
COATESVILLE    CLOUDY    72  70  94 W5        29.91R
POTTSTOWN      CLOUDY    75  70  84 S8        29.88S
BLUE BELL      CLOUDY    75  68  78 CALM      29.87R
DOYLESTOWN     LGT RAIN  77  70  79 S7        29.86R
WILLOW GROVE   NOT AVBL
NORTH PHILA    LGT RAIN  76  66  71 SW7       29.88R
PHILADELPHIA   CLOUDY    76  69  79 SW8       29.88R
$$



USA.gov is the U.S. government's official web portal to all federal, state and local government web resources and services.